Zurück zum Katalog

STARLINK-30537

AktivKommunikationVLEO
NORAD 57991·PAYLOAD·🇺🇸 United States

Gestartet Oct 5, 2023 von Cape Canaveral Space Force Station

Loading…

Nächste Überflüge (nächste 24 Stunden)

TLE

AktuellSource: CelesTrak SupGP

Epoche: Sep 14, 2026, 21:22 UTC

1 57991C 23153A   26257.89076389  .00041159  00000+0  14906-2 0  2575
2 57991  43.0038  78.4709 0001878 271.1448  72.8720 15.27562108    11

Verfolge STARLINK-30537 in Echtzeit mit AllMySat

Download on the App Store